Location: ??
(35.5052°N, 139.7262°E)
Time: 18:14:35
(UTC+00:00)

Landsat 4 - Pass Details

Date: 20 June 2021
Orbit: 503 x 522 km, 98.2° (Epoch: 29 July)

Event Time Altitude Azimuth Distance (km) Brightness Sun altitude
Rises 17:16:32 0° 4° (N) 2,647 8.2 -20.7°
Reaches altitude 10° 17:18:43 10° 358° (N) 1,752 7.1 -20.5°
Maximum altitude 17:22:18 43° 287° (WNW) 732 4.2 -20.0°
Enters shadow 17:22:26 43° 280° (W) 734 4.2 -20.0°
